Year,Month,Day,Hour,Minute,Value (Times are PST for temperature in C)
2013,08,21,00,00,18.40
2013,08,21,00,01,18.50
2013,08,21,00,02,18.60
2013,08,21,00,03,18.60
2013,08,21,00,04,18.60
2013,08,21,00,05,18.60
2013,08,21,00,06,18.60
2013,08,21,00,07,18.60
2013,08,21,00,08,18.60
2013,08,21,00,09,18.60
2013,08,21,00,10,18.60
2013,08,21,00,11,18.70
2013,08,21,00,12,18.70
2013,08,21,00,13,18.70
2013,08,21,00,14,18.70
2013,08,21,00,15,18.80
2013,08,21,00,16,18.80
2013,08,21,00,17,18.80
2013,08,21,00,18,18.80
2013,08,21,00,19,18.80
2013,08,21,00,20,18.80
2013,08,21,00,21,18.80
2013,08,21,00,22,18.80
2013,08,21,00,23,18.80
2013,08,21,00,24,18.80
2013,08,21,00,25,18.80
2013,08,21,00,26,18.80
2013,08,21,00,27,18.80
2013,08,21,00,28,18.80
2013,08,21,00,29,18.80
2013,08,21,00,30,18.80
2013,08,21,00,31,18.80
2013,08,21,00,32,18.70
2013,08,21,00,33,18.70
2013,08,21,00,34,18.60
2013,08,21,00,35,18.60
2013,08,21,00,36,18.60
2013,08,21,00,37,18.60
2013,08,21,00,38,18.50
2013,08,21,00,39,18.50
2013,08,21,00,40,18.50
2013,08,21,00,41,18.50
2013,08,21,00,42,18.50
2013,08,21,00,43,18.50
2013,08,21,00,44,18.40
2013,08,21,00,45,18.40
2013,08,21,00,46,18.40
2013,08,21,00,47,18.40
2013,08,21,00,48,18.40
2013,08,21,00,49,18.40
2013,08,21,00,50,18.40
2013,08,21,00,51,18.40
2013,08,21,00,52,18.40
2013,08,21,00,53,18.50
2013,08,21,00,54,18.50
2013,08,21,00,55,18.50
2013,08,21,00,56,18.50
2013,08,21,00,57,18.50
2013,08,21,00,58,18.40
2013,08,21,00,59,18.50
2013,08,21,01,00,18.50
2013,08,21,01,01,18.50
2013,08,21,01,02,18.50
2013,08,21,01,03,18.50
2013,08,21,01,04,18.50
2013,08,21,01,05,18.50
2013,08,21,01,06,18.50
2013,08,21,01,07,18.50
2013,08,21,01,08,18.50
2013,08,21,01,09,18.50
2013,08,21,01,10,18.50
2013,08,21,01,11,18.50
2013,08,21,01,12,18.50
2013,08,21,01,13,18.50
2013,08,21,01,14,18.40
2013,08,21,01,15,18.40
2013,08,21,01,16,18.40
2013,08,21,01,17,18.40
2013,08,21,01,18,18.40
2013,08,21,01,19,18.30
2013,08,21,01,20,18.30
2013,08,21,01,21,18.30
2013,08,21,01,22,18.30
2013,08,21,01,23,18.30
2013,08,21,01,24,18.30
2013,08,21,01,25,18.30
2013,08,21,01,26,18.30
2013,08,21,01,27,18.30
2013,08,21,01,28,18.30
2013,08,21,01,29,18.30
2013,08,21,01,30,18.20
2013,08,21,01,31,18.20
2013,08,21,01,32,18.20
2013,08,21,01,33,18.20
2013,08,21,01,34,18.20
2013,08,21,01,35,18.20
2013,08,21,01,36,18.20
2013,08,21,01,37,18.20
2013,08,21,01,38,18.20
2013,08,21,01,39,18.20
2013,08,21,01,40,18.20
2013,08,21,01,41,18.20
2013,08,21,01,42,18.20
2013,08,21,01,43,18.20
2013,08,21,01,44,18.20
2013,08,21,01,45,18.20
2013,08,21,01,46,18.20
2013,08,21,01,47,18.20
2013,08,21,01,48,18.20
2013,08,21,01,49,18.20
2013,08,21,01,50,18.20
2013,08,21,01,51,18.30
2013,08,21,01,52,18.30
2013,08,21,01,53,18.30
2013,08,21,01,54,18.30
2013,08,21,01,55,18.30
2013,08,21,01,56,18.30
2013,08,21,01,57,18.30
2013,08,21,01,58,18.30
2013,08,21,01,59,18.30
2013,08,21,02,00,18.30
2013,08,21,02,01,18.30
2013,08,21,02,02,18.30
2013,08,21,02,03,18.30
2013,08,21,02,04,18.30
2013,08,21,02,05,18.30
2013,08,21,02,06,18.30
2013,08,21,02,07,18.30
2013,08,21,02,08,18.30
2013,08,21,02,09,18.30
2013,08,21,02,10,18.20
2013,08,21,02,11,18.20
2013,08,21,02,12,18.20
2013,08,21,02,13,18.20
2013,08,21,02,14,18.20
2013,08,21,02,15,18.20
2013,08,21,02,16,18.10
2013,08,21,02,17,18.10
2013,08,21,02,18,18.10
2013,08,21,02,19,18.10
2013,08,21,02,20,18.10
2013,08,21,02,21,18.10
2013,08,21,02,22,18.10
2013,08,21,02,23,18.10
2013,08,21,02,24,18.10
2013,08,21,02,25,18.10
2013,08,21,02,26,18.10
2013,08,21,02,27,18.00
2013,08,21,02,28,18.00
2013,08,21,02,29,18.00
2013,08,21,02,30,18.00
2013,08,21,02,31,17.90
2013,08,21,02,32,17.90
2013,08,21,02,33,17.90
2013,08,21,02,34,17.90
2013,08,21,02,35,17.90
2013,08,21,02,36,17.90
2013,08,21,02,37,17.90
2013,08,21,02,38,17.90
2013,08,21,02,39,17.90
2013,08,21,02,40,17.90
2013,08,21,02,41,17.90
2013,08,21,02,42,17.90
2013,08,21,02,43,17.90
2013,08,21,02,44,17.90
2013,08,21,02,45,17.90
2013,08,21,02,46,17.90
2013,08,21,02,47,17.90
2013,08,21,02,48,17.90
2013,08,21,02,49,17.90
2013,08,21,02,50,17.90
2013,08,21,02,51,17.90
2013,08,21,02,52,17.90
2013,08,21,02,53,17.90
2013,08,21,02,54,17.80
2013,08,21,02,55,17.80
2013,08,21,02,56,17.80
2013,08,21,02,57,17.80
2013,08,21,02,58,17.80
2013,08,21,02,59,17.80
2013,08,21,03,00,17.80
2013,08,21,03,01,17.80
2013,08,21,03,02,17.80
2013,08,21,03,03,17.80
2013,08,21,03,04,17.80
2013,08,21,03,05,17.80
2013,08,21,03,06,17.90
2013,08,21,03,07,17.90
2013,08,21,03,08,17.90
2013,08,21,03,09,17.90
2013,08,21,03,10,17.90
2013,08,21,03,11,17.90
2013,08,21,03,12,17.90
2013,08,21,03,13,17.90
2013,08,21,03,14,17.90
2013,08,21,03,15,17.90
2013,08,21,03,16,17.90
2013,08,21,03,17,17.90
2013,08,21,03,18,17.90
2013,08,21,03,19,17.90
2013,08,21,03,20,17.90
2013,08,21,03,21,17.90
2013,08,21,03,22,17.90
2013,08,21,03,23,17.90
2013,08,21,03,24,17.90
2013,08,21,03,25,17.90
2013,08,21,03,26,18.00
2013,08,21,03,27,18.00
2013,08,21,03,28,17.90
2013,08,21,03,29,17.90
2013,08,21,03,30,17.90
2013,08,21,03,31,18.00
2013,08,21,03,32,18.00
2013,08,21,03,33,18.00
2013,08,21,03,34,18.00
2013,08,21,03,35,18.00
2013,08,21,03,36,18.10
2013,08,21,03,37,18.10
2013,08,21,03,38,18.10
2013,08,21,03,39,18.10
2013,08,21,03,40,18.10
2013,08,21,03,41,18.10
2013,08,21,03,42,18.10
2013,08,21,03,43,18.10
2013,08,21,03,44,18.20
2013,08,21,03,45,18.10
2013,08,21,03,46,18.10
2013,08,21,03,47,18.20
2013,08,21,03,48,18.20
2013,08,21,03,49,18.20
2013,08,21,03,50,18.20
2013,08,21,03,51,18.20
2013,08,21,03,52,18.20
2013,08,21,03,53,18.20
2013,08,21,03,54,18.20
2013,08,21,03,55,18.20
2013,08,21,03,56,18.20
2013,08,21,03,57,18.20
2013,08,21,03,58,18.30
2013,08,21,03,59,18.30
2013,08,21,04,00,18.30
2013,08,21,04,01,18.20
2013,08,21,04,02,18.20
2013,08,21,04,03,18.20
2013,08,21,04,04,18.20
2013,08,21,04,05,18.20
2013,08,21,04,06,18.20
2013,08,21,04,07,18.10
2013,08,21,04,08,18.00
2013,08,21,04,09,17.90
2013,08,21,04,10,17.80
2013,08,21,04,11,17.70
2013,08,21,04,12,17.60
2013,08,21,04,13,17.50
2013,08,21,04,14,17.40
2013,08,21,04,15,17.40
2013,08,21,04,16,17.30
2013,08,21,04,17,17.30
2013,08,21,04,18,17.20
2013,08,21,04,19,17.10
2013,08,21,04,20,16.90
2013,08,21,04,21,16.80
2013,08,21,04,22,16.70
2013,08,21,04,23,16.60
2013,08,21,04,24,16.50
2013,08,21,04,25,16.40
2013,08,21,04,26,16.40
2013,08,21,04,27,16.30
2013,08,21,04,28,16.20
2013,08,21,04,29,16.20
2013,08,21,04,30,16.10
2013,08,21,04,31,16.10
2013,08,21,04,32,16.10
2013,08,21,04,33,16.00
2013,08,21,04,34,16.00
2013,08,21,04,35,16.00
2013,08,21,04,36,16.00
2013,08,21,04,37,16.00
2013,08,21,04,38,16.00
2013,08,21,04,39,16.00
2013,08,21,04,40,16.00
2013,08,21,04,41,16.00
2013,08,21,04,42,16.10
2013,08,21,04,43,16.10
2013,08,21,04,44,16.20
2013,08,21,04,45,16.20
2013,08,21,04,46,16.20
2013,08,21,04,47,16.20
2013,08,21,04,48,16.30
2013,08,21,04,49,16.30
2013,08,21,04,50,16.30
2013,08,21,04,51,16.30
2013,08,21,04,52,16.30
2013,08,21,04,53,16.20
2013,08,21,04,54,16.20
2013,08,21,04,55,16.20
2013,08,21,04,56,16.20
2013,08,21,04,57,16.20
2013,08,21,04,58,16.10
2013,08,21,04,59,16.10
2013,08,21,05,00,16.10
2013,08,21,05,01,16.10
2013,08,21,05,02,16.10
2013,08,21,05,03,16.10
2013,08,21,05,04,16.10
2013,08,21,05,05,16.10
2013,08,21,05,06,16.10
2013,08,21,05,07,16.10
2013,08,21,05,08,16.00
2013,08,21,05,09,16.10
2013,08,21,05,10,16.10
2013,08,21,05,11,16.10
2013,08,21,05,12,16.10
2013,08,21,05,13,16.10
2013,08,21,05,14,16.00
2013,08,21,05,15,16.00
2013,08,21,05,16,16.00
2013,08,21,05,17,15.90
2013,08,21,05,18,15.90
2013,08,21,05,19,15.90
2013,08,21,05,20,15.90
2013,08,21,05,21,15.90
2013,08,21,05,22,15.90
2013,08,21,05,23,15.80
2013,08,21,05,24,15.80
2013,08,21,05,25,15.80
2013,08,21,05,26,15.80
2013,08,21,05,27,15.80
2013,08,21,05,28,15.70
2013,08,21,05,29,15.70
2013,08,21,05,30,15.60
2013,08,21,05,31,15.50
2013,08,21,05,32,15.50
2013,08,21,05,33,15.50
2013,08,21,05,34,15.50
2013,08,21,05,35,15.40
2013,08,21,05,36,15.40
2013,08,21,05,37,15.40
2013,08,21,05,38,15.40
2013,08,21,05,39,15.40
2013,08,21,05,40,15.40
2013,08,21,05,41,15.40
2013,08,21,05,42,15.40
2013,08,21,05,43,15.40
2013,08,21,05,44,15.40
2013,08,21,05,45,15.40
2013,08,21,05,46,15.40
2013,08,21,05,47,15.40
2013,08,21,05,48,15.40
2013,08,21,05,49,15.40
2013,08,21,05,50,15.40
2013,08,21,05,51,15.40
2013,08,21,05,52,15.40
2013,08,21,05,53,15.40
2013,08,21,05,54,15.50
2013,08,21,05,55,15.50
2013,08,21,05,56,15.60
2013,08,21,05,57,15.60
2013,08,21,05,58,15.70
2013,08,21,05,59,15.70
2013,08,21,06,00,15.80
2013,08,21,06,01,15.90
2013,08,21,06,02,15.90
2013,08,21,06,03,16.00
2013,08,21,06,04,16.00
2013,08,21,06,05,16.00
2013,08,21,06,06,15.90
2013,08,21,06,07,15.90
2013,08,21,06,08,15.80
2013,08,21,06,09,15.80
2013,08,21,06,10,15.80
2013,08,21,06,11,15.80
2013,08,21,06,12,15.80
2013,08,21,06,13,15.70
2013,08,21,06,14,15.70
2013,08,21,06,15,15.60
2013,08,21,06,16,15.60
2013,08,21,06,17,15.60
2013,08,21,06,18,15.60
2013,08,21,06,19,15.60
2013,08,21,06,20,15.60
2013,08,21,06,21,15.60
2013,08,21,06,22,15.70
2013,08,21,06,23,15.70
2013,08,21,06,24,15.70
2013,08,21,06,25,15.80
2013,08,21,06,26,15.80
2013,08,21,06,27,15.80
2013,08,21,06,28,15.80
2013,08,21,06,29,15.80
2013,08,21,06,30,15.80
2013,08,21,06,31,15.80
2013,08,21,06,32,15.70
2013,08,21,06,33,15.70
2013,08,21,06,34,15.70
2013,08,21,06,35,15.70
2013,08,21,06,36,15.70
2013,08,21,06,37,15.60
2013,08,21,06,38,15.60
2013,08,21,06,39,15.60
2013,08,21,06,40,15.60
2013,08,21,06,41,15.70
2013,08,21,06,42,15.70
2013,08,21,06,43,15.80
2013,08,21,06,44,15.80
2013,08,21,06,45,15.80
2013,08,21,06,46,15.80
2013,08,21,06,47,15.80
2013,08,21,06,48,15.80
2013,08,21,06,49,15.80
2013,08,21,06,50,15.80
2013,08,21,06,51,15.80
2013,08,21,06,52,15.80
2013,08,21,06,53,15.80
2013,08,21,06,54,15.80
2013,08,21,06,55,15.80
2013,08,21,06,56,15.90
2013,08,21,06,57,15.90
2013,08,21,06,58,15.90
2013,08,21,06,59,16.00
2013,08,21,07,00,16.00
2013,08,21,07,01,16.00
2013,08,21,07,02,16.10
2013,08,21,07,03,16.10
2013,08,21,07,04,16.10
2013,08,21,07,05,16.10
2013,08,21,07,06,16.20
2013,08,21,07,07,16.20
2013,08,21,07,08,16.20
2013,08,21,07,09,16.20
2013,08,21,07,10,16.20
2013,08,21,07,11,16.20
2013,08,21,07,12,16.20
2013,08,21,07,13,16.30
2013,08,21,07,14,16.30
2013,08,21,07,15,16.30
2013,08,21,07,16,16.30
2013,08,21,07,17,16.30
2013,08,21,07,18,16.40
2013,08,21,07,19,16.40
2013,08,21,07,20,16.40
2013,08,21,07,21,16.50
2013,08,21,07,22,16.50
2013,08,21,07,23,16.50
2013,08,21,07,24,16.60
2013,08,21,07,25,16.60
2013,08,21,07,26,16.60
2013,08,21,07,27,16.70
2013,08,21,07,28,16.70
2013,08,21,07,29,16.70
2013,08,21,07,30,16.80
2013,08,21,07,31,16.80
2013,08,21,07,32,16.80
2013,08,21,07,33,16.90
2013,08,21,07,34,16.90
2013,08,21,07,35,17.00
2013,08,21,07,36,17.00
2013,08,21,07,37,17.10
2013,08,21,07,38,17.20
2013,08,21,07,39,17.30
2013,08,21,07,40,17.40
2013,08,21,07,41,17.50
2013,08,21,07,42,17.60
2013,08,21,07,43,17.60
2013,08,21,07,44,17.70
2013,08,21,07,45,17.70
2013,08,21,07,46,17.80
2013,08,21,07,47,17.80
2013,08,21,07,48,17.90
2013,08,21,07,49,18.00
2013,08,21,07,50,18.10
2013,08,21,07,51,18.20
2013,08,21,07,52,18.20
2013,08,21,07,53,18.20
2013,08,21,07,54,18.20
2013,08,21,07,55,18.30
2013,08,21,07,56,18.30
2013,08,21,07,57,18.30
2013,08,21,07,58,18.30
2013,08,21,07,59,18.30
2013,08,21,08,00,18.30
2013,08,21,08,01,18.30
2013,08,21,08,02,18.30
2013,08,21,08,03,18.30
2013,08,21,08,04,18.30
2013,08,21,08,05,18.30
2013,08,21,08,06,18.30
2013,08,21,08,07,18.30
2013,08,21,08,08,18.40
2013,08,21,08,09,18.40
2013,08,21,08,10,18.40
2013,08,21,08,11,18.50
2013,08,21,08,12,18.60
2013,08,21,08,13,18.70
2013,08,21,08,14,18.70
2013,08,21,08,15,18.80
2013,08,21,08,16,18.90
2013,08,21,08,17,18.90
2013,08,21,08,18,19.00
2013,08,21,08,19,19.10
2013,08,21,08,20,19.20
2013,08,21,08,21,19.20
2013,08,21,08,22,19.30
2013,08,21,08,23,19.30
2013,08,21,08,24,19.30
2013,08,21,08,25,19.20
2013,08,21,08,26,19.20
2013,08,21,08,27,19.10
2013,08,21,08,28,19.10
2013,08,21,08,29,19.10
2013,08,21,08,30,19.10
2013,08,21,08,31,19.10
2013,08,21,08,32,19.20
2013,08,21,08,33,19.20
2013,08,21,08,34,19.20
2013,08,21,08,35,19.10
2013,08,21,08,36,19.20
2013,08,21,08,37,19.20
2013,08,21,08,38,19.20
2013,08,21,08,39,19.20
2013,08,21,08,40,19.20
2013,08,21,08,41,19.20
2013,08,21,08,42,19.20
2013,08,21,08,43,19.30
2013,08,21,08,44,19.30
2013,08,21,08,45,19.30
2013,08,21,08,46,19.40
2013,08,21,08,47,19.40
2013,08,21,08,48,19.40
2013,08,21,08,49,19.50
2013,08,21,08,50,19.50
2013,08,21,08,51,19.60
2013,08,21,08,52,19.60
2013,08,21,08,53,19.70
2013,08,21,08,54,19.70
2013,08,21,08,55,19.70
2013,08,21,08,56,19.70
2013,08,21,08,57,19.70
2013,08,21,08,58,19.70
2013,08,21,08,59,19.70
2013,08,21,09,00,19.70
2013,08,21,09,01,19.80
2013,08,21,09,02,19.80
2013,08,21,09,03,19.80
2013,08,21,09,04,19.80
2013,08,21,09,05,19.80
2013,08,21,09,06,19.80
2013,08,21,09,07,19.80
2013,08,21,09,08,19.80
2013,08,21,09,09,19.70
2013,08,21,09,10,19.80
2013,08,21,09,11,19.80
2013,08,21,09,12,19.90
2013,08,21,09,13,19.90
2013,08,21,09,14,19.90
2013,08,21,09,15,19.90
2013,08,21,09,16,19.90
2013,08,21,09,17,19.90
2013,08,21,09,18,19.90
2013,08,21,09,19,19.90
2013,08,21,09,20,19.90
2013,08,21,09,21,20.00
2013,08,21,09,22,20.10
2013,08,21,09,23,20.20
2013,08,21,09,24,20.30
2013,08,21,09,25,20.30
2013,08,21,09,26,20.30
2013,08,21,09,27,20.30
2013,08,21,09,28,20.40
2013,08,21,09,29,20.40
2013,08,21,09,30,20.50
2013,08,21,09,31,20.60
2013,08,21,09,32,20.60
2013,08,21,09,33,20.70
2013,08,21,09,34,20.70
2013,08,21,09,35,20.80
2013,08,21,09,36,20.90
2013,08,21,09,37,20.90
2013,08,21,09,38,20.90
2013,08,21,09,39,20.80
2013,08,21,09,40,20.80
2013,08,21,09,41,20.80
2013,08,21,09,42,20.70
2013,08,21,09,43,20.80
2013,08,21,09,44,20.80
2013,08,21,09,45,20.80
2013,08,21,09,46,20.90
2013,08,21,09,47,21.00
2013,08,21,09,48,21.10
2013,08,21,09,49,21.30
2013,08,21,09,50,21.40
2013,08,21,09,51,21.40
2013,08,21,09,52,21.50
2013,08,21,09,53,21.50
2013,08,21,09,54,21.60
2013,08,21,09,55,21.70
2013,08,21,09,56,21.70
2013,08,21,09,57,21.70
2013,08,21,09,58,21.80
2013,08,21,09,59,21.80
2013,08,21,10,00,21.90
2013,08,21,10,01,21.90
2013,08,21,10,02,21.90
2013,08,21,10,03,21.90
2013,08,21,10,04,21.90
2013,08,21,10,05,21.90
2013,08,21,10,06,21.80
2013,08,21,10,07,21.80
2013,08,21,10,08,21.80
2013,08,21,10,09,21.80
2013,08,21,10,10,21.80
2013,08,21,10,11,21.70
2013,08,21,10,12,21.70
2013,08,21,10,13,21.70
2013,08,21,10,14,21.70
2013,08,21,10,15,21.70
2013,08,21,10,16,21.70
2013,08,21,10,17,21.70
2013,08,21,10,18,21.70
2013,08,21,10,19,21.70
2013,08,21,10,20,21.70
2013,08,21,10,21,21.70
2013,08,21,10,22,21.70
2013,08,21,10,23,21.70
2013,08,21,10,24,21.60
2013,08,21,10,25,21.60
2013,08,21,10,26,21.60
2013,08,21,10,27,21.60
2013,08,21,10,28,21.60
2013,08,21,10,29,21.60
2013,08,21,10,30,21.50
2013,08,21,10,31,21.50
2013,08,21,10,32,21.60
2013,08,21,10,33,21.60
2013,08,21,10,34,21.70
2013,08,21,10,35,21.70
2013,08,21,10,36,21.80
2013,08,21,10,37,21.80
2013,08,21,10,38,21.90
2013,08,21,10,39,22.00
2013,08,21,10,40,22.00
2013,08,21,10,41,22.00
2013,08,21,10,42,22.00
2013,08,21,10,43,22.00
2013,08,21,10,44,22.10
2013,08,21,10,45,22.10
2013,08,21,10,46,22.20
2013,08,21,10,47,22.20
2013,08,21,10,48,22.20
2013,08,21,10,49,22.20
2013,08,21,10,50,22.20
2013,08,21,10,51,22.20
2013,08,21,10,52,22.20
2013,08,21,10,53,22.20
2013,08,21,10,54,22.20
2013,08,21,10,55,22.30
2013,08,21,10,56,22.30
2013,08,21,10,57,22.40
2013,08,21,10,58,22.50
2013,08,21,10,59,22.60
2013,08,21,11,00,22.70
2013,08,21,11,01,22.80
2013,08,21,11,02,22.90
2013,08,21,11,03,23.00
2013,08,21,11,04,23.10
2013,08,21,11,05,23.20
2013,08,21,11,06,23.30
2013,08,21,11,07,23.40
2013,08,21,11,08,23.50
2013,08,21,11,09,23.60
2013,08,21,11,10,23.70
2013,08,21,11,11,23.70
2013,08,21,11,12,23.80
2013,08,21,11,13,23.80
2013,08,21,11,14,23.80
2013,08,21,11,15,23.80
2013,08,21,11,16,23.80
2013,08,21,11,17,23.80
2013,08,21,11,18,23.80
2013,08,21,11,19,23.90
2013,08,21,11,20,23.90
2013,08,21,11,21,23.90
2013,08,21,11,22,23.90
2013,08,21,11,23,23.80
2013,08,21,11,24,23.80
2013,08,21,11,25,23.80
2013,08,21,11,26,23.70
2013,08,21,11,27,23.70
2013,08,21,11,28,23.70
2013,08,21,11,29,23.60
2013,08,21,11,30,23.60
2013,08,21,11,31,23.50
2013,08,21,11,32,23.30
2013,08,21,11,33,23.30
2013,08,21,11,34,23.20
2013,08,21,11,35,23.20
2013,08,21,11,36,23.10
2013,08,21,11,37,23.10
2013,08,21,11,38,23.00
2013,08,21,11,39,23.00
2013,08,21,11,40,23.00
2013,08,21,11,41,23.10
2013,08,21,11,42,23.10
2013,08,21,11,43,23.10
2013,08,21,11,44,23.10
2013,08,21,11,45,23.10
2013,08,21,11,46,23.10
2013,08,21,11,47,23.10
2013,08,21,11,48,23.10
2013,08,21,11,49,23.00
2013,08,21,11,50,23.00
2013,08,21,11,51,23.10
2013,08,21,11,52,23.10
2013,08,21,11,53,23.10
2013,08,21,11,54,23.10
2013,08,21,11,55,23.20
2013,08,21,11,56,23.10
2013,08,21,11,57,23.00
2013,08,21,11,58,22.90
2013,08,21,11,59,22.90
2013,08,21,12,00,22.90
2013,08,21,12,01,23.00
2013,08,21,12,02,23.10
2013,08,21,12,03,23.20
2013,08,21,12,04,23.20
2013,08,21,12,05,23.20
2013,08,21,12,06,23.20
2013,08,21,12,07,23.10
2013,08,21,12,08,23.10
2013,08,21,12,09,23.10
2013,08,21,12,10,23.20
2013,08,21,12,11,23.20
2013,08,21,12,12,23.20
2013,08,21,12,13,23.20
2013,08,21,12,14,23.30
2013,08,21,12,15,23.30
2013,08,21,12,16,23.30
2013,08,21,12,17,23.20
2013,08,21,12,18,23.10
2013,08,21,12,19,23.10
2013,08,21,12,20,23.00
2013,08,21,12,21,23.00
2013,08,21,12,22,22.80
2013,08,21,12,23,22.70
2013,08,21,12,24,22.60
2013,08,21,12,25,22.60
2013,08,21,12,26,22.60
2013,08,21,12,27,22.50
2013,08,21,12,28,22.40
2013,08,21,12,29,22.40
2013,08,21,12,30,22.50
2013,08,21,12,31,22.50
2013,08,21,12,32,22.60
2013,08,21,12,33,22.60
2013,08,21,12,34,22.60
2013,08,21,12,35,22.60
2013,08,21,12,36,22.70
2013,08,21,12,37,22.70
2013,08,21,12,38,22.80
2013,08,21,12,39,22.80
2013,08,21,12,40,22.90
2013,08,21,12,41,22.90
2013,08,21,12,42,23.00
2013,08,21,12,43,23.10
2013,08,21,12,44,23.10
2013,08,21,12,45,23.10
2013,08,21,12,46,23.10
2013,08,21,12,47,23.10
2013,08,21,12,48,23.10
2013,08,21,12,49,23.10
2013,08,21,12,50,23.20
2013,08,21,12,51,23.20
2013,08,21,12,52,23.30
2013,08,21,12,53,23.30
2013,08,21,12,54,23.40
2013,08,21,12,55,23.40
2013,08,21,12,56,23.40
2013,08,21,12,57,23.40
2013,08,21,12,58,23.40
2013,08,21,12,59,23.40
2013,08,21,13,00,23.40
2013,08,21,13,01,23.40
2013,08,21,13,02,23.50
2013,08,21,13,03,23.50
2013,08,21,13,04,23.60
2013,08,21,13,05,23.70
2013,08,21,13,06,23.80
2013,08,21,13,07,23.90
2013,08,21,13,08,24.00
2013,08,21,13,09,24.10
2013,08,21,13,10,24.10
2013,08,21,13,11,24.10
2013,08,21,13,12,24.10
2013,08,21,13,13,24.00
2013,08,21,13,14,23.90
2013,08,21,13,15,23.80
2013,08,21,13,16,23.70
2013,08,21,13,17,23.70
2013,08,21,13,18,23.70
2013,08,21,13,19,23.70
2013,08,21,13,20,23.70
2013,08,21,13,21,23.70
2013,08,21,13,22,23.70
2013,08,21,13,23,23.70
2013,08,21,13,24,23.80
2013,08,21,13,25,23.80
2013,08,21,13,26,23.90
2013,08,21,13,27,23.80
2013,08,21,13,28,23.80
2013,08,21,13,29,23.70
2013,08,21,13,30,23.60
2013,08,21,13,31,23.60
2013,08,21,13,32,23.60
2013,08,21,13,33,23.70
2013,08,21,13,34,23.60
2013,08,21,13,35,23.60
2013,08,21,13,36,23.60
2013,08,21,13,37,23.60
2013,08,21,13,38,23.70
2013,08,21,13,39,23.80
2013,08,21,13,40,23.90
2013,08,21,13,41,23.90
2013,08,21,13,42,23.90
2013,08,21,13,43,23.80
2013,08,21,13,44,23.90
2013,08,21,13,45,23.90
2013,08,21,13,46,24.00
2013,08,21,13,47,24.10
2013,08,21,13,48,24.20
2013,08,21,13,49,24.20
2013,08,21,13,50,24.30
2013,08,21,13,51,24.50
2013,08,21,13,52,24.60
2013,08,21,13,53,24.70
2013,08,21,13,54,24.80
2013,08,21,13,55,24.80
2013,08,21,13,56,24.90
2013,08,21,13,57,24.90
2013,08,21,13,58,24.80
2013,08,21,13,59,24.80
2013,08,21,14,00,24.80
2013,08,21,14,01,24.90
2013,08,21,14,02,24.90
2013,08,21,14,03,25.00
2013,08,21,14,04,25.00
2013,08,21,14,05,25.00
2013,08,21,14,06,25.00
2013,08,21,14,07,25.10
2013,08,21,14,08,25.10
2013,08,21,14,09,25.10
2013,08,21,14,10,25.00
2013,08,21,14,11,24.90
2013,08,21,14,12,24.90
2013,08,21,14,13,24.90
2013,08,21,14,14,24.80
2013,08,21,14,15,24.70
2013,08,21,14,16,24.70
2013,08,21,14,17,24.70
2013,08,21,14,18,24.80
2013,08,21,14,19,24.80
2013,08,21,14,20,24.80
2013,08,21,14,21,24.80
2013,08,21,14,22,24.80
2013,08,21,14,23,24.90
2013,08,21,14,24,24.90
2013,08,21,14,25,25.00
2013,08,21,14,26,25.10
2013,08,21,14,27,25.10
2013,08,21,14,28,25.20
2013,08,21,14,29,25.30
2013,08,21,14,30,25.30
2013,08,21,14,31,25.40
2013,08,21,14,32,25.40
2013,08,21,14,33,25.40
2013,08,21,14,34,25.50
2013,08,21,14,35,25.50
2013,08,21,14,36,25.50
2013,08,21,14,37,25.50
2013,08,21,14,38,25.40
2013,08,21,14,39,25.50
2013,08,21,14,40,25.50
2013,08,21,14,41,25.60
2013,08,21,14,42,25.60
2013,08,21,14,43,25.60
2013,08,21,14,44,25.70
2013,08,21,14,45,25.70
2013,08,21,14,46,25.60
2013,08,21,14,47,25.60
2013,08,21,14,48,25.60
2013,08,21,14,49,25.60
2013,08,21,14,50,25.60
2013,08,21,14,51,25.60
2013,08,21,14,52,25.70
2013,08,21,14,53,25.80
2013,08,21,14,54,25.80
2013,08,21,14,55,25.80
2013,08,21,14,56,25.80
2013,08,21,14,57,25.80
2013,08,21,14,58,25.90
2013,08,21,14,59,25.90
2013,08,21,15,00,25.90
2013,08,21,15,01,25.90
2013,08,21,15,02,25.80
2013,08,21,15,03,25.70
2013,08,21,15,04,25.60
2013,08,21,15,05,25.50
2013,08,21,15,06,25.50
2013,08,21,15,07,25.50
2013,08,21,15,08,25.50
2013,08,21,15,09,25.60
2013,08,21,15,10,25.60
2013,08,21,15,11,25.70
2013,08,21,15,12,25.70
2013,08,21,15,13,25.80
2013,08,21,15,14,25.80
2013,08,21,15,15,25.90
2013,08,21,15,16,25.90
2013,08,21,15,17,25.90
2013,08,21,15,18,26.00
2013,08,21,15,19,26.00
2013,08,21,15,20,26.00
2013,08,21,15,21,25.90
2013,08,21,15,22,25.90
2013,08,21,15,23,25.80
2013,08,21,15,24,25.70
2013,08,21,15,25,25.70
2013,08,21,15,26,25.80
2013,08,21,15,27,25.90
2013,08,21,15,28,25.90
2013,08,21,15,29,25.90
2013,08,21,15,30,25.90
2013,08,21,15,31,26.10
2013,08,21,15,32,26.20
2013,08,21,15,33,26.30
2013,08,21,15,34,26.40
2013,08,21,15,35,26.40
2013,08,21,15,36,26.30
2013,08,21,15,37,26.30
2013,08,21,15,38,26.20
2013,08,21,15,39,26.10
2013,08,21,15,40,26.10
2013,08,21,15,41,26.10
2013,08,21,15,42,26.20
2013,08,21,15,43,26.20
2013,08,21,15,44,26.20
2013,08,21,15,45,26.20
2013,08,21,15,46,26.20
2013,08,21,15,47,26.20
2013,08,21,15,48,26.30
2013,08,21,15,49,26.30
2013,08,21,15,50,26.40
2013,08,21,15,51,26.40
2013,08,21,15,52,26.40
2013,08,21,15,53,26.40
2013,08,21,15,54,26.40
2013,08,21,15,55,26.50
2013,08,21,15,56,26.50
2013,08,21,15,57,26.60
2013,08,21,15,58,26.60
2013,08,21,15,59,26.60
2013,08,21,16,00,26.70
2013,08,21,16,01,26.70
2013,08,21,16,02,26.70
2013,08,21,16,03,26.60
2013,08,21,16,04,26.60
2013,08,21,16,05,26.60
2013,08,21,16,06,26.60
2013,08,21,16,07,26.50
2013,08,21,16,08,26.50
2013,08,21,16,09,26.40
2013,08,21,16,10,26.40
2013,08,21,16,11,26.40
2013,08,21,16,12,26.40
2013,08,21,16,13,26.40
2013,08,21,16,14,26.40
2013,08,21,16,15,26.40
2013,08,21,16,16,26.40
2013,08,21,16,17,26.40
2013,08,21,16,18,26.40
2013,08,21,16,19,26.40
2013,08,21,16,20,26.30
2013,08,21,16,21,26.20
2013,08,21,16,22,26.20
2013,08,21,16,23,26.20
2013,08,21,16,24,26.10
2013,08,21,16,25,26.10
2013,08,21,16,26,26.10
2013,08,21,16,27,26.10
2013,08,21,16,28,26.20
2013,08,21,16,29,26.30
2013,08,21,16,30,26.30
2013,08,21,16,31,26.30
2013,08,21,16,32,26.40
2013,08,21,16,33,26.40
2013,08,21,16,34,26.40
2013,08,21,16,35,26.40
2013,08,21,16,36,26.40
2013,08,21,16,37,26.40
2013,08,21,16,38,26.40
2013,08,21,16,39,26.40
2013,08,21,16,40,26.40
2013,08,21,16,41,26.40
2013,08,21,16,42,26.40
2013,08,21,16,43,26.40
2013,08,21,16,44,26.30
2013,08,21,16,45,26.20
2013,08,21,16,46,26.00
2013,08,21,16,47,25.90
2013,08,21,16,48,25.90
2013,08,21,16,49,25.90
2013,08,21,16,50,25.80
2013,08,21,16,51,25.80
2013,08,21,16,52,25.80
2013,08,21,16,53,25.80
2013,08,21,16,54,25.90
2013,08,21,16,55,25.90
2013,08,21,16,56,26.00
2013,08,21,16,57,26.10
2013,08,21,16,58,26.10
2013,08,21,16,59,26.10
2013,08,21,17,00,26.10
2013,08,21,17,01,26.10
2013,08,21,17,02,26.00
2013,08,21,17,03,26.00
2013,08,21,17,04,26.00
2013,08,21,17,05,26.00
2013,08,21,17,06,26.10
2013,08,21,17,07,26.20
2013,08,21,17,08,26.20
2013,08,21,17,09,26.20
2013,08,21,17,10,26.30
2013,08,21,17,11,26.30
2013,08,21,17,12,26.20
2013,08,21,17,13,26.20
2013,08,21,17,14,26.30
2013,08,21,17,15,26.30
2013,08,21,17,16,26.40
2013,08,21,17,17,26.40
2013,08,21,17,18,26.50
2013,08,21,17,19,26.50